Bedminster, NJ

10:48 PM EST on February 24, 2017 (GMT -0500)
Somerset

Weather History for KSMQ - May, 2013

Change the Weather History Date:

Friday, May 10, 2013

  Actual Average Record
Temperature  
Mean Temperature 63 °F -  
Max Temperature 81 °F 68 °F 90 °F (1979)
Min Temperature 46 °F 44 °F 26 °F (1947)
Degree Days  
Heating Degree Days 2    
Growing Degree Days 13 (Base 50)    
Moisture  
Dew Point 51 °F    
Average Humidity 87    
Maximum Humidity 100    
Minimum Humidity 39    
Precipitation  
Precipitation 0.03 in - - ()
Sea Level Pressure  
Sea Level Pressure 29.95 in    
Wind  
Wind Speed 0 mph (SSW)    
Max Wind Speed 6 mph    
Max Gust Speed -    
Visibility 4 miles    
Events Fog , Rain    
Averages and records for this station are not official NWS values.
T = Trace of Precipitation, MM = Missing Value Source: NWS Daily Summary

Daily Weather History Graph

Daily Weather History Graph

Search for Another Location

Airport or City:

Trip Planner

Search our weather history database for the weather conditions in past years. The results will help you decide how hot, cold, wet, or windy it might be!

Date:

Astronomy

May. 10, 2013 Rise Set
Actual Time 5:46 AM EDT 8:04 PM EDT
Civil Twilight 5:16 AM EDT 8:34 PM EDT
Nautical Twilight 4:38 AM EDT 9:12 PM EDT
Astronomical Twilight 3:57 AM EDT 9:54 PM EDT
Moon 6:09 AM EDT (5/10) 8:51 PM EDT (5/10)
Length of Visible Light 15h 18m
Length of Day
14h 17m
New Moon, 0% of the Moon is Illuminated
May 10
New Moon
May 18
First Quarter
May 25
Full
May 31
Last Quarter
Jun 8
New

Hourly Weather History & Observations

Time (EDT) Temp. Heat Index Dew Point Humidity Pressure Visibility Wind Dir Wind Speed Gust Speed Precip Events Conditions
12:16 AM 53.6 °F - 53.6 °F 100% 29.94 in 1.2 mi Calm Calm - N/A   Scattered Clouds
12:18 AM 53.6 °F - 51.8 °F 94% 29.94 in 3.0 mi Calm Calm - N/A   Scattered Clouds
12:28 AM 51.8 °F - 51.8 °F 100% 29.94 in 1.5 mi Calm Calm - N/A   Partly Cloudy
12:42 AM 51.8 °F - 51.8 °F 100% 29.94 in 3.0 mi Calm Calm - N/A   Clear
12:45 AM 51.8 °F - 51.8 °F 100% 29.94 in 1.8 mi Calm Calm - N/A   Clear
12:53 AM 52.0 °F - 52.0 °F 100% 29.95 in 1.0 mi Calm Calm - N/A   Mist
1:03 AM 51.8 °F - 51.8 °F 100% 29.94 in 2.0 mi Calm Calm - N/A   Partly Cloudy
1:10 AM 51.8 °F - 51.8 °F 100% 29.94 in 6.0 mi Calm Calm - N/A   Mostly Cloudy
1:33 AM 51.8 °F - 51.8 °F 100% 29.94 in 1.5 mi Calm Calm - N/A   Mostly Cloudy
1:46 AM 51.8 °F - 51.8 °F 100% 29.94 in 3.0 mi Calm Calm - N/A   Mostly Cloudy
1:51 AM 51.8 °F - 51.8 °F 100% 29.94 in 1.5 mi Calm Calm - N/A   Mostly Cloudy
1:53 AM 51.1 °F - 51.1 °F 100% 29.94 in 0.8 mi Calm Calm - N/A   Mist
2:16 AM 51.8 °F - 50.0 °F 94% 29.94 in 1.8 mi Calm Calm - N/A   Mostly Cloudy
2:22 AM 50.0 °F - 50.0 °F 100% 29.94 in 3.0 mi Calm Calm - N/A   Mostly Cloudy
2:27 AM 50.0 °F - 50.0 °F 100% 29.93 in 1.8 mi Calm Calm - N/A   Scattered Clouds
2:43 AM 50.0 °F - 48.2 °F 94% 29.94 in 1.5 mi Calm Calm - N/A   Partly Cloudy
2:45 AM 50.0 °F - 48.2 °F 94% 29.94 in 3.0 mi Calm Calm - N/A   Partly Cloudy
2:53 AM 50.0 °F - 48.9 °F 96% 29.94 in 3.0 mi Calm Calm - N/A   Partly Cloudy
3:02 AM 50.0 °F - 48.2 °F 94% 29.94 in 1.8 mi Calm Calm - N/A   Partly Cloudy
3:11 AM 50.0 °F - 48.2 °F 94% 29.95 in 3.0 mi Calm Calm - N/A   Partly Cloudy
3:33 AM 48.2 °F - 48.2 °F 100% 29.95 in 1.5 mi Calm Calm - N/A   Clear
3:43 AM 48.2 °F - 48.2 °F 100% 29.95 in 4.0 mi Calm Calm - N/A   Clear
3:50 AM 48.2 °F - 48.2 °F 100% 29.95 in 1.8 mi Calm Calm - N/A   Clear
3:53 AM 48.2 °F - 48.2 °F 100% 29.95 in 1.5 mi Calm Calm - N/A   Clear
4:00 AM 48.2 °F - 48.2 °F 100% 29.95 in 4.0 mi Calm Calm - N/A   Clear
4:23 AM 48.2 °F - 46.4 °F 93% 29.96 in 2.5 mi Calm Calm - N/A   Scattered Clouds
4:37 AM 48.2 °F - 46.4 °F 93% 29.96 in 1.5 mi Calm Calm - N/A   Scattered Clouds
4:39 AM 48.2 °F - 46.4 °F 93% 29.96 in 4.0 mi Calm Calm - N/A   Scattered Clouds
4:53 AM 48.0 °F - 46.9 °F 96% 29.96 in 7.0 mi Calm Calm - N/A   Partly Cloudy
5:31 AM 46.4 °F - 46.4 °F 100% 29.97 in 1.5 mi Calm Calm - N/A   Clear
5:37 AM 46.4 °F - 46.4 °F 100% 29.97 in 0.8 mi Calm Calm - N/A   Mist
5:42 AM 46.4 °F - 46.4 °F 100% 29.98 in 1.2 mi Calm Calm - N/A   Scattered Clouds
5:46 AM 46.4 °F - 46.4 °F 100% 29.98 in 3.0 mi Calm Calm - N/A   Scattered Clouds
5:53 AM 46.9 °F - 46.0 °F 97% 29.98 in 5.0 mi Calm Calm - N/A   Mostly Cloudy
6:03 AM 46.4 °F - 46.4 °F 100% 29.98 in 0.8 mi Calm Calm - N/A   Overcast
6:13 AM 46.4 °F - 46.4 °F 100% 29.98 in 0.2 mi Calm Calm - N/A Fog Fog
6:53 AM 48.9 °F - 48.0 °F 97% 29.99 in 0.2 mi Calm Calm - N/A Fog Fog
7:01 AM 48.2 °F - 48.2 °F 100% 29.99 in 1.0 mi Calm Calm - N/A   Mist
7:20 AM 51.8 °F - 51.8 °F 100% 29.99 in 3.0 mi Calm Calm - N/A   Mostly Cloudy
7:33 AM 53.6 °F - 51.8 °F 94% 29.99 in 4.0 mi NNW 3.5 mph - N/A   Scattered Clouds
7:53 AM 55.9 °F - 55.0 °F 97% 29.99 in 5.0 mi Calm Calm - N/A   Clear
8:53 AM 64.9 °F - 57.9 °F 78% 29.99 in 10.0 mi Calm Calm - N/A   Clear
9:53 AM 70.0 °F - 57.9 °F 65% 29.98 in 10.0 mi Calm Calm - N/A   Clear
10:53 AM 73.9 °F - 57.9 °F 57% 29.98 in 10.0 mi SSW 5.8 mph - N/A   Clear
11:53 AM 75.9 °F - 55.9 °F 50% 29.97 in 10.0 mi NW 5.8 mph - N/A   Partly Cloudy
12:53 PM 75.0 °F - 59.0 °F 57% 29.96 in 10.0 mi South 5.8 mph - N/A   Clear
1:53 PM 77.0 °F - 57.9 °F 52% 29.95 in 10.0 mi Calm Calm - N/A   Clear
2:53 PM 79.0 °F - 53.1 °F 40% 29.93 in 10.0 mi Variable 3.5 mph - N/A   Clear
3:53 PM 79.0 °F - 54.0 °F 42% 29.91 in 10.0 mi Calm Calm - N/A   Clear
4:53 PM 80.1 °F 79.9 °F 53.1 °F 39% 29.90 in 10.0 mi South 4.6 mph - N/A   Clear
5:53 PM 78.1 °F - 53.1 °F 42% 29.90 in 10.0 mi Calm Calm - N/A   Mostly Cloudy
6:53 PM 75.0 °F - 59.0 °F 57% 29.88 in 10.0 mi Calm Calm - N/A   Mostly Cloudy
7:53 PM 73.0 °F - 57.9 °F 59% 29.88 in 10.0 mi Calm Calm - N/A   Clear
8:53 PM 71.1 °F - 57.9 °F 63% 29.88 in 10.0 mi SSE 4.6 mph - N/A   Clear
9:53 PM 69.1 °F - 59.0 °F 70% 29.89 in 10.0 mi Calm Calm - N/A   Clear
10:53 PM 68.0 °F - 59.0 °F 73% 29.90 in 10.0 mi Variable 3.5 mph - N/A   Mostly Cloudy
11:53 PM 66.0 °F - 61.0 °F 84% 29.90 in 4.0 mi Calm Calm - 0.03 in Rain Rain